Regional Weather Roundup
Issued by NWS

Home | Current Version | Previous Version | Text Only | Print | Product List | Glossary Off
Versions: 1 2 3 4 5 6 7 8 9 10 11 12 13 14 15 16 17 18 19 20 21 22 23 24 25 26 27 28 29 30 31 32 33 34 35 36 37 38 39 40 41 42 43 44 45 46 47 48 49 50

956
ASUS43 KFSD 202102
RWRSD

WEATHER ROUNDUP FOR SOUTH DAKOTA
NATIONAL WEATHER SERVICE SIOUX FALLS SD
400 PM CDT FRI OCT 20 2017

NOTE: "FAIR" INDICATES FEW OR NO CLOUDS BELOW 12,000 FEET WITH NO
SIGNIFICANT WEATHER AND/OR OBSTRUCTIONS TO VISIBILITY.


SDZ001>005-009-010-012>017-202200-
NORTHWEST AND NORTH CENTRAL SOUTH DAKOTA

CITY           SKY/WX    TMP DP  RH WIND       PRES   REMARKS
BUFFALO          N/A     83  34  17 SW23G38   29.21F
MOBRIDGE       SUNNY     76  51  41 S23       29.32F
$$

SDZ012>016-024>037-041>051-057-063-072>074-202200-
SOUTHWEST AND SOUTH CENTRAL SOUTH DAKOTA

CITY           SKY/WX    TMP DP  RH WIND       PRES   REMARKS
RAPID CTY ARPT SUNNY     83  35  18 SW14G23   29.35F
PIERRE         SUNNY     80  52  37 S24G31    29.36F
CUSTER         SUNNY     72  33  24 SW15G24   29.50F
ELLSWORTH AFB  SUNNY     83  35  17 SW17G24   29.34F
PHILIP         SUNNY     84  44  24 S20       29.34F
PINE RIDGE     SUNNY     82  38  20 S13G22    29.43F
SPEARFISH      FAIR      79  37  22 SW20G29   29.37S
WINNER         FAIR      77  54  44 S24G37    29.46F
$$

SDZ004>011-016>023-039-040-202200-
NORTHEAST SOUTH DAKOTA

CITY           SKY/WX    TMP DP  RH WIND       PRES   REMARKS
ABERDEEN       MOSUNNY   76  53  44 S30G40    29.44F
WATERTOWN      SUNNY     72  55  55 S24G35    29.54F
BROOKINGS      SUNNY     73  55  53 S26G35    29.59F
SISSETON         N/A     77  54  44 S20G33    29.49F
$$

SDZ017-020-022-023-036>040-048>070-202200-
SOUTHEAST SOUTH DAKOTA

CITY           SKY/WX    TMP DP  RH WIND       PRES   REMARKS
SIOUX FALLS    CLOUDY    76  57  51 S24G33    29.61F
HURON          PTSUNNY   75  54  47 S21G32    29.49F
CHAMBERLAIN    MOSUNNY   77  56  48 S18G24    29.47F
MITCHELL       MOSUNNY   78  55  44 S21G29    29.52F
YANKTON        SUNNY     77  55  46 S30G37    29.57
$$

ABBREVIATIONS USED IN REMARKS
   TC - TEMPERATURE IN CELSIUS
  WCI - WIND CHILL INDEX
   HX - HEAT INDEX
  VSB - VISIBILITY





USA.gov is the U.S. government's official web portal to all federal, state and local government web resources and services.